STARLINK-30255 (57606 NORAD) Tracking and Keplerian Element Data

This shows tracking and keplerian element data for the satellite.

Feedback or suggestion? Click here.




ElementValue
Catalog57606
NameSTARLINK-30255
Epoch Orbit376
Epoch Day239.16667824
Epoch Year2023
RAAN77.7362
Inclination43.0008
Eccentricity7.43E-05
Argument of Perigee218.5319
Mean Anonmoly38.0062
Mean Motion15.74504356
Decay Rate-0.00856032
L11 57606U 23119E 23239.16667824 -.00856032 00000+0 -63089-2 0 9992
L22 57606 43.0008 77.7362 0000743 218.5319 38.0062 15.74504356 3761



Live tracking and technical data element details for STARLINK-30255 (NORAD 57606). STARLINK-30255 can be tracked NOW for your location showing map with azimuth and elevation plus other details from your city location.







IsCatalogInMostPopularTable: catalog: 57606, numindb: 6
Update: records affected: 1



GetName: 57606 STARLINK-30255

Hit Count: updated at: Tue, 26 Sep 2023 11:56:04 GMT